Zurück zum Katalog

STARLINK-3669

AktivKommunikationVLEO
NORAD 51971·PAYLOAD·🇺🇸 United States

Gestartet Mar 9, 2022 von Cape Canaveral Space Force Station

Loading…

Nächste Überflüge (nächste 24 Stunden)

TLE

AktuellSource: CelesTrak SupGP

Epoche: Sep 14, 2026, 14:15 UTC

1 51971C 22025R   26257.59423611 -.00035140  00000+0 -11306-2 0  2571
2 51971  53.1572 225.3724 0001356  83.4415 146.1784 15.31703617    19

Verfolge STARLINK-3669 in Echtzeit mit AllMySat

Download on the App Store